ראשי / חיפושים אחרונים

חיפושים אחרונים

לוחית
סוג רכב
דגם
שנה
תאריך חיפוש
שעת חיפוש
91545801 מרצדס בנץ גרמנ - 2018 28/08/2026 14:02:42
28401603 הונדה הודו HONDA CITY 2023 28/08/2026 14:02:40
70338803 רנו טורקיה MEGANE 2024 28/08/2026 14:02:38
28401603 הונדה הודו HONDA CITY 2023 28/08/2026 14:02:37
59326203 צ'רי סין TIGGO 8 PRO 2024 28/08/2026 14:02:37
30245203 טסלה סין MODEL 3 2022 28/08/2026 14:02:33
4954861 פורד תורכיה TOURNEO CONNECT 2007 28/08/2026 14:02:33
2342270 טויוטה יפן LEXUS IS 250 2009 28/08/2026 14:02:27
33454904 טויוטה תאילנד HILUX 2025 28/08/2026 14:02:25
25757104 לנדרובר בריטניה SPORT 2025 28/08/2026 14:02:22
4458875 פורד גרמניה FOCUS 2012 28/08/2026 14:02:20
82380602 טויוטה טורקיה C-HR HYBRID 2021 28/08/2026 14:02:18
6145431 הונדה בריטניה CIVIC TOURER 2015 28/08/2026 14:02:17
3617539 איסוזו תאילנד PICK - UP 2016 28/08/2026 14:02:17
3617539 איסוזו תאילנד PICK - UP 2016 28/08/2026 14:02:16
52723303 סיטרואן ספרד BERLINGO 2023 28/08/2026 14:02:14
3617539 איסוזו תאילנד PICK - UP 2016 28/08/2026 14:02:13
85142901 מיצובישי יפן OUTLANDER 2020 28/08/2026 14:02:13
78797402 מרצדס גרמניה C300 2022 28/08/2026 14:02:07
28401603 הונדה הודו HONDA CITY 2023 28/08/2026 14:02:07
3088839 אופל ד. קוריאה MOKKA 2016 28/08/2026 14:02:06
48550204 בי ווי די סין SEAL U 2025 28/08/2026 14:02:01
1009073 יונדאי צ'כיה I30 2010 28/08/2026 14:02:01
4458875 פורד גרמניה FOCUS 2012 28/08/2026 14:01:59
2323469 מזדה יפן MAZDA 3 2009 28/08/2026 14:01:56
4626029 רנו ספרד MEGANE 2001 28/08/2026 14:01:54
1050970 קואנג יאנג טיו - 2009 28/08/2026 14:01:51
5131275 פורד בלגיה MONDEO 2012 28/08/2026 14:01:46
6222433 קיה סלובקיה SPORTAGE 2015 28/08/2026 14:01:43
78480801 הונדה בריטניה CIVIC 5D 2020 28/08/2026 14:01:41
56268901 יוטונג סין - 2018 28/08/2026 14:01:38
8117473 מיצובישי יפן LANCER 2010 28/08/2026 14:01:34
1960638 אאודי גרמניה SQ5 2016 28/08/2026 14:01:33
8162984 טויוטה בלגיה YARIS HYBRID 2016 28/08/2026 14:01:32
9887979 פורשה גרמניה - 2017 28/08/2026 14:01:31
92865401 מרצדס גרמניה C220 D 2018 28/08/2026 14:01:31
37591301 דימלרקריזלר-גר - 2018 28/08/2026 14:01:30
64067803 קיה קוריאה הדרומית PICANTO 2023 28/08/2026 14:01:29
13513702 סקודה צ'כיה OCTAVIA 2020 28/08/2026 14:01:28
1092750 טויוטה בריטניה COROLLA RUNX 2003 28/08/2026 14:01:27
1362271 פולקסווגן גרמניה GOLF PLUS 2010 28/08/2026 14:01:26
1147810 טויוטה יפן COROLLA 2001 28/08/2026 14:01:26
6675732 אלפא רומיאו איטליה ALFA MITO 2014 28/08/2026 14:01:24
62203603 רנו צרפת - 2024 28/08/2026 14:01:24
51094503 ב מ וו גרמניה 530E 2023 28/08/2026 14:01:23
89287501 טויוטה טורקיה COROLLA HSD SDN 2019 28/08/2026 14:01:04
51094503 ב מ וו גרמניה 530E 2023 28/08/2026 14:01:02
46897704 איויאיסי סין LIMO 2025 28/08/2026 14:01:01
1362271 פולקסווגן גרמניה GOLF PLUS 2010 28/08/2026 14:01:00
81100004 ב מ וו גרמניה M5 2026 28/08/2026 14:00:59
12193602 סקודה צ'כיה SUPERB FL 2019 28/08/2026 14:00:59
91964001 ג'יפ ארהב" - 2020 28/08/2026 14:00:59
9045560 האמר ארהב" - 2005 28/08/2026 14:00:58
28401603 הונדה הודו HONDA CITY 2023 28/08/2026 14:00:58
4200269 מזדה יפן MAZDA 3 2009 28/08/2026 14:00:58
5604315 קררו - 1997 28/08/2026 14:00:55
81100004 ב מ וו גרמניה M5 2026 28/08/2026 14:00:53
9852138 קיה קוריאה הדרומית PICANTO 2016 28/08/2026 14:00:38
7531469 דימלרקריזלר-גר - 2011 28/08/2026 14:00:35
8643064 טויוטה יפן COROLLA 2008 28/08/2026 14:00:24
7081453 סקודה צ'כיה OCTAVIA 2015 28/08/2026 14:00:22
11812804 מרצדס בנץ גרמנ - 2025 28/08/2026 14:00:20
1861739 סובארו יפן FORESTER 2016 28/08/2026 14:00:18
1805814 יונדאי קוריאה הדרומית ELANTRA 2006 28/08/2026 14:00:17
32824403 קרייזלר ארהב" WRANGLER UNLIM 2022 28/08/2026 14:00:16
71322703 מיצובישי תאילנד SPACE STAR 2024 28/08/2026 14:00:14
9862710 איסוזו יפן IPPON 2001 28/08/2026 14:00:10
9821273 פורשה גרמניה - 2012 28/08/2026 14:00:09
23389401 סקודה צ'כיה NEW OCTAVIA 2017 28/08/2026 13:59:58
1136975 פיג'ו צרפת 207 2011 28/08/2026 13:59:56
51094503 ב מ וו גרמניה 530E 2023 28/08/2026 13:59:56
81100004 ב מ וו גרמניה M5 2026 28/08/2026 13:59:50
4954861 פורד תורכיה TOURNEO CONNECT 2007 28/08/2026 13:59:48
36527902 מיצובישי תאילנד L200 2021 28/08/2026 13:59:42
9596172 טויוטה קנדה - 2010 28/08/2026 13:59:42
51094504 ניאו סין - 2025 28/08/2026 13:59:41
14642004 סובארו יפן CROSSTREK 2024 28/08/2026 13:59:41
2872167 פולקסווגן גרמניה GOLF 2009 28/08/2026 13:59:40
55346101 יונדאי צ'כיה TUCSON 2019 28/08/2026 13:59:39
2913362 דייהטסו יפן .SIRION 2007 28/08/2026 13:59:36
5077075 פורד גרמניה FOCUS 2012 28/08/2026 13:59:36
7531469 דימלרקריזלר-גר - 2011 28/08/2026 13:59:33
8616605 סוזוקי-יפן - 1992 28/08/2026 13:59:31
5862463 דימלרקריזלר-גר - 2008 28/08/2026 13:59:29
2445167 אאודי גרמניה A6 2009 28/08/2026 13:59:24
12193602 סקודה צ'כיה SUPERB FL 2019 28/08/2026 13:59:07
84924903 קיה קוריאה הדרומית PICANTO 2024 28/08/2026 13:59:02
9507763 סוזוקי יפן GRAND VITARA 2008 28/08/2026 13:59:01
8768566 טויוטה בריטניה AVENSIS 2009 28/08/2026 13:58:58
4701412 אופל ספרד CORSA 2013 28/08/2026 13:58:56
1136571 פולקסווגן מקסיקה JETTA 2010 28/08/2026 13:58:55
12605603 ימהה יפן - 2022 28/08/2026 13:58:54
10949201 טויוטה תאילנד HILUX 2017 28/08/2026 13:58:51
24915603 יונדאי קוריאה הדרומית ELANTRA HEV 2023 28/08/2026 13:58:51
83977201 טויוטה טורקיה COROLLA HSD SDN 2019 28/08/2026 13:58:49
47095501 מרצדס בנץ גרמנ - 2018 28/08/2026 13:58:47
5104565 מזדה יפן MAZDA 5 2008 28/08/2026 13:58:45
49159701 סיאט ספרד LEON 2018 28/08/2026 13:58:45
30283104 גילי סין GEOMETRY C 2025 28/08/2026 13:58:43
25920203 מ א ן גרמניה - 2023 28/08/2026 13:58:42
53553704 טסלה סין MODEL Y 2025 28/08/2026 13:58:40
8878164 טויוטה יפן COROLLA 2008 28/08/2026 13:58:38
54188401 מרצדס בנץ גרמנ - 2019 28/08/2026 13:58:34
4547875 פורד בלגיה MONDEO 2012 28/08/2026 13:58:34
1186037 טויוטה טורקיה COROLLA 2016 28/08/2026 13:58:33
88488401 מיצובישי יפן ASX 2020 28/08/2026 13:58:30
50564401 יונדאי קוריאה הדרומית I25 2018 28/08/2026 13:58:28
60001603 ניסאן מקסיקו QX50 2024 28/08/2026 13:58:24
4954861 פורד תורכיה TOURNEO CONNECT 2007 28/08/2026 13:58:22
2854501 פיאג'ו איטליה - 1995 28/08/2026 13:58:19
3757866 יונדאי טורקיה ACCENT 2008 28/08/2026 13:58:14
3048580 סקודה צ'כיה NEW YETI 2017 28/08/2026 13:58:10
29756904 קיה קוריאה הדרומית PICANTO 2025 28/08/2026 13:58:07
1101514 ניסאן יפן MAXSIMA 2005 28/08/2026 13:58:07
33333333 ב מ וו גרמניה M4 COMPETITION 2026 28/08/2026 13:58:05
71895501 שברולט קוריאה הדרומית SPARK 2020 28/08/2026 13:58:05
1019335 ניסאן יפן ALMERA 2001 28/08/2026 13:58:05
4647560 פיג'ו צרפת 407 2007 28/08/2026 13:58:04
59889802 פורשה גרמניה TAYCAN 2022 28/08/2026 13:58:04
86223501 דאצ'יה רומניה DOKKER 2020 28/08/2026 13:57:59
1204162 טויוטה יפן COROLLA 2007 28/08/2026 13:57:55
2441328 פיאג'ו איטליה - 2017 28/08/2026 13:57:53
22532002 טויוטה בריטניה COROLLA TS HSD 2020 28/08/2026 13:57:51
23348101 פולקסווגן ספרד POLO 2017 28/08/2026 13:57:50
3764367 סקודה צ'כיה OCTAVIA 2009 28/08/2026 13:57:46
3245063 סובארו יפן IMPREZA B3 2008 28/08/2026 13:57:44
76814201 רנו טורקיה MEGANE 2019 28/08/2026 13:57:38
5000737 מרצדס גרמניה S500 4 MATIC 2016 28/08/2026 13:57:38
4012980 סקודה צ'כיה FABIA SPACE 2017 28/08/2026 13:57:36
37908903 מרצדס בנץ גרמנ - 2023 28/08/2026 13:57:34
4954861 פורד תורכיה TOURNEO CONNECT 2007 28/08/2026 13:57:32
1164979 פיאט פולין FIAT 500 2011 28/08/2026 13:57:29
82968703 בי ווי די סין BYD DOLPHIN 2024 28/08/2026 13:57:21
4953534 סקודה צ'כיה NEW SUPERB 2015 28/08/2026 13:57:20
42302002 מאן פולין - 2021 28/08/2026 13:57:18
22008703 טויוטה טורקיה COROLLA SDN HSD 2022 28/08/2026 13:57:14
6733870 וולבו בלגיה - 2010 28/08/2026 13:57:12
74767204 פיג'ו צרפת 3008 2026 28/08/2026 13:57:11
37790603 שברולט קוריאה הדרומית TRAX 2025 28/08/2026 13:57:04
4954861 פורד תורכיה TOURNEO CONNECT 2007 28/08/2026 13:57:01
7509662 מזדה יפן MAZDA 3 2007 28/08/2026 13:56:59
29721201 ב מ וו גרמניה 530E IPERFORMAN 2017 28/08/2026 13:56:59
3081532 שברולט ארהב" MALIBU LT 2014 28/08/2026 13:56:54
89013803 מזדה יפן MAZDA3 2024 28/08/2026 13:56:53
3748373 מרוטי סוזוקי הודו ALTO 2010 28/08/2026 13:56:48
12429501 טויוטה טורקיה C-HR HYBRID 2018 28/08/2026 13:56:47
3733432 סאן יאנג טיואן - 2014 28/08/2026 13:56:47
2688312 סקודה צ'כיה OCTAVIA 2013 28/08/2026 13:56:45
77416403 מזדה יפן MAZDA6 2024 28/08/2026 13:56:44
7023961 יונדאי קוריאה הדרומית GETZ 2007 28/08/2026 13:56:43
14518703 טויוטה טורקיה COROLLA HSD SDN 2022 28/08/2026 13:56:41
9537971 טויוטה יפן - 2006 28/08/2026 13:56:40
9907131 ניסאן ארהב" ALTIMA 2015 28/08/2026 13:56:40
2057928 בומברדיה קנדה - 2021 28/08/2026 13:56:34
9537971 טויוטה יפן - 2006 28/08/2026 13:56:34
4954861 פורד תורכיה TOURNEO CONNECT 2007 28/08/2026 13:56:32
1912610 רנו ספרד MEGANE 2001 28/08/2026 13:56:29
9428833 יונדאי טורקיה I10 2015 28/08/2026 13:56:28
1603278 פיאט פולין FIAT 500 1.2 2011 28/08/2026 13:56:27
70996403 יונדאי טורקיה I10 2024 28/08/2026 13:56:24
9537971 טויוטה יפן - 2006 28/08/2026 13:56:23
5782461 רנו צרפת - 2007 28/08/2026 13:56:16
1034930 דייהו ד. קוריאה דייהו דרום קוריאה 1997 28/08/2026 13:56:15
2416285 קיה סלובקיה CEED 2017 28/08/2026 13:56:12
7509662 מזדה יפן MAZDA 3 2007 28/08/2026 13:56:12
4243752 ניסאן בריטניה JUKE 2013 28/08/2026 13:56:10
1304075 קי.טי.אמ אוסטר - 2011 28/08/2026 13:56:07
7281686 טויוטה טורקיה COROLLA 2017 28/08/2026 13:56:03
7281686 טויוטה טורקיה COROLLA 2017 28/08/2026 13:56:03
7281686 טויוטה טורקיה COROLLA 2017 28/08/2026 13:56:02
12605603 ימהה יפן - 2022 28/08/2026 13:56:01
7281686 טויוטה טורקיה COROLLA 2017 28/08/2026 13:55:59
3006874 טויוטה יפן SPACE VERSO 2011 28/08/2026 13:55:58
7281686 טויוטה טורקיה COROLLA 2017 28/08/2026 13:55:57
68776602 בנטלי בריטניה CONTINENTAL GT 2022 28/08/2026 13:55:53
65096204 מ.ג סין HS HYBRID 2026 28/08/2026 13:55:51
23104003 סקודה צ'כיה KODIAQ FL 2022 28/08/2026 13:55:50
2241528 הסקוורנה אוסטר - 2016 28/08/2026 13:55:45
1729985 קיה סלובקיה SPORTAGE 2017 28/08/2026 13:55:37
92254101 שברולט ארהב" - 2020 28/08/2026 13:55:32
50077401 מרצדס גרמניה C200 2018 28/08/2026 13:55:27
7090655 יונדאי טורקיה I10 2017 28/08/2026 13:55:25
69288303 ב מ וו ארהב" X4 XDRIVE20I 2024 28/08/2026 13:55:23
29721201 ב מ וו גרמניה 530E IPERFORMAN 2017 28/08/2026 13:55:22
69288303 ב מ וו ארהב" X4 XDRIVE20I 2024 28/08/2026 13:55:21
64498104 ג'אקו סין JAECOO8 PHEV 2026 28/08/2026 13:55:17
66018301 דאף-הולנד - 2020 28/08/2026 13:55:14
64007003 סקודה צ'כיה KAMIQ 2024 28/08/2026 13:55:13
22802502 סיאט ספרד IBIZA 2020 28/08/2026 13:55:10
1177663 הונדה יפן FR-V 2007 28/08/2026 13:55:07
4645911 יונדאי קוריאה הדרומית SANTA FE 2013 28/08/2026 13:55:07
40497403 אאודי הונגריה Q3 SPORTBACK 2023 28/08/2026 13:55:03
7281686 טויוטה טורקיה COROLLA 2017 28/08/2026 13:55:00
7294873 פולקסווגן גרמניה GOLF 2011 28/08/2026 13:54:55
9597534 טויוטה צרפת YARIS HYBRID 2015 28/08/2026 13:54:54
7281686 טויוטה טורקיה COROLLA 2017 28/08/2026 13:54:53
1161757 ג'ון דיר ארהב" - 1987 28/08/2026 13:54:53
62252001 סובארו יפן FORESTER 2019 28/08/2026 13:54:52
3650011 מרצדס גרמניה GLK220CDI 4MATI 2013 28/08/2026 13:54:51
35750602 יונדאי צ'כיה TUCSON 2020 28/08/2026 13:54:51
וואטסאפ